Location: Martz Observatory
(42.0083°N, 79.0667°W)
Time: 21:56:25
(UTC-04:00)

Daily predictions for brighter satellites

Satellite Brightness Start Highest point End
(mag) Time Altitude Azimuth Time Altitude Azimuth Time Altitude Azimuth
ATLAS CENTAUR R/B 3.8 19:27:32 10° S 19:32:06 43° ESE 19:44:45 10° NE
Meteor 1-22 Rocket 4.4 19:29:45 10° SSE 19:34:50 45° E 19:39:52 10° NNE
Cosmos 921 Rocket 3.7 19:32:01 10° NNW 19:36:10 56° WSW 19:40:14 10° S
Cosmos 2219 Rocket 3.1 19:31:35 10° SW 19:37:05 55° WNW 19:42:39 10° NNE
Cosmos 2233 Rocket 4.1 19:32:12 10° S 19:38:31 87° E 19:44:52 10° N
USA 215 3.4 19:32:22 10° NE 19:38:47 56° SE 19:45:10 10° SSW
Cosmos 1441 Rocket 3.3 19:35:35 10° NNW 19:39:20 79° W 19:43:04 10° S
HJ-1C 4.3 19:36:32 10° SE 19:39:27 28° ENE 19:42:25 10° N
Cosmos 2278 Rocket 2.5 19:34:36 10° NNW 19:40:16 75° WSW 19:45:53 10° SSE
Meteor 2-5 Rocket 4.0 19:35:41 10° NNW 19:41:20 77° W 19:46:52 10° S
Meteor 1-29 4.2 19:40:32 10° NE 19:43:21 22° E 19:46:09 10° SSE
Cosmos 2297 3.8 19:38:16 10° NNW 19:43:54 59° ENE 19:49:27 10° SE
METEOR-M 4.3 19:39:34 10° SE 19:44:43 51° ENE 19:49:54 10° N
Meteor 1-24 Rocket 3.7 19:40:16 10° N 19:45:57 68° ENE 19:51:23 10° SSE
Meteor 1-28 Rocket 3.2 19:42:35 10° NNE 19:46:17 59° E 19:49:56 10° S
Cosmos 1378 3.4 19:43:51 10° N 19:47:28 45° E 19:51:03 10° SSE
Cosmos 1607 4.3 19:42:51 10° SW 19:49:00 68° NW 19:55:10 10° NNE
Cosmos 1707 3.2 19:46:18 10° NNW 19:50:09 66° W 19:53:57 10° S
FENGYUN 3A 4.5 19:46:32 10° SE 19:51:08 30° ENE 19:55:47 10° N
Cosmos 1076 Rocket 4.0 19:47:29 10° N 19:51:33 39° ENE 19:55:37 10° SSE
SJ-6B 2.8 19:47:54 10° SSE 19:51:51 87° ENE 19:55:55 10° NNW
Cosmos-2242 4.0 19:52:14 10° SE 19:55:48 25° E 19:59:24 10° NNE
Cosmos 1452 Rocket 4.1 19:51:33 10° N 19:56:26 36° ENE 20:01:14 10° SE
ATLAS 3B R/B 4.1 19:49:17 10° WSW 19:56:26 43° NW 20:03:24 10° NNE
Cosmos 2369 Rocket 4.0 19:56:14 10° NNE 19:59:16 14° NE 20:01:47 11° ENE
Cosmos 1758 4.2 19:55:59 10° SSE 19:59:31 29° E 20:03:06 10° NNE
Helios 1B rocket 2.6 19:56:05 10° NNE 20:00:04 48° E 20:04:02 10° S
SeaSat 1 3.6 19:59:33 10° ENE 20:03:18 21° ESE 20:07:02 10° SSE
Cosmos 1408 Rocket 3.7 20:00:33 10° N 20:04:48 47° ENE 20:08:58 10° SSE
Resurs 01 Rocket 1.6 20:04:46 10° SSE 20:09:11 74° ENE 20:13:39 10° N
Okean 3 Rocket 4.2 20:06:46 10° NNW 20:11:16 63° W 20:15:44 10° S
NOSS 3-2 (A) 3.4 20:05:25 10° SSW 20:11:26 71° ESE 20:18:00 10° NE
Cosmos 2333 Rocket 3.7 20:06:56 10° SW 20:12:19 39° WNW 20:17:43 10° N
FengYun 1-2 T 4.2 20:06:56 10° SSE 20:12:22 63° ENE 20:17:48 10° N
Resurs 1-3 3.6 20:08:56 10° SSE 20:13:15 63° ENE 20:17:37 10° N
CZ-4B DEB 3.3 20:15:36 21° SE 20:17:22 40° ENE 20:20:28 10° N
Atlas Centaur 2 4.2 20:16:01 10° WSW 20:23:11 31° SSW 20:28:59 13° SE
ATLAS CENTAUR R/B 2.8 20:20:02 10° NW 20:23:55 37° WSW 20:27:29 10° S
Meteor 1-21 Rocket 4.2 20:20:05 10° N 20:25:34 56° ENE 20:30:59 10° SSE
ALOS 2.2 20:26:22 10° SSE 20:31:00 68° ENE 20:35:39 10° N
Cosmos 1743 Rocket 3.9 20:27:15 10° N 20:31:33 44° ENE 20:33:29 27° SE
In-Cosmos 22 4.2 20:26:15 10° N 20:32:04 86° E 20:37:50 10° S
Cosmos 1674 3.6 20:29:08 10° NNE 20:32:23 29° ENE 20:32:23 29° ENE
Nadezhda 4 Rocket 4.1 20:26:29 10° N 20:32:41 56° E 20:38:45 10° SSE
Cosmos 1269 Rocket 4.4 20:28:41 10° SSE 20:33:30 38° ESE 20:38:21 10° NE
Cosmos 1092 Rocket 4.3 20:31:39 10° N 20:37:36 44° ENE 20:40:56 24° SE
Spot 2 Rocket 4.1 20:34:02 10° S 20:38:58 57° WSW 20:43:57 10° NNW
GP-B 4.0 20:35:49 10° NNE 20:39:11 30° ENE 20:39:11 30° ENE
Cosmos 1048 Rocket 4.5 20:35:35 10° SSE 20:40:25 37° ESE 20:45:14 10° NE
Cosmos 2237 Rocket 4.3 20:36:02 10° WSW 20:40:53 28° NW 20:45:46 10° N
OAO 3 Rocket 4.0 20:40:39 10° WSW 20:45:00 35° S 20:46:04 31° SSE
Helios 1A 4.1 20:43:06 10° S 20:47:06 45° W 20:51:09 10° NNW
NOSS 3-2 (C) 3.5 20:42:19 10° SW 20:48:25 83° NW 20:55:06 10° NE
Envisat 3.9 20:50:02 29° ENE 20:50:02 29° ENE 20:54:14 10° N
CZ-4C R/B 4.1 20:45:24 10° W 20:50:11 29° NW 20:55:30 10° NNE
ASTEX 1 3.2 20:46:56 10° N 20:51:52 76° E 20:56:45 10° S
CENTAUR R/B 3.8 20:46:49 10° S 21:00:35 - NE 20:48:51 20° SSE
Cosmos 1634 Rocket 4.3 20:49:15 26° SE 20:52:12 42° E 20:57:59 10° NNE
ATLAS 5 CENTAUR R/B 1.8 20:47:46 10° SW 20:52:32 89° WNW 20:57:45 10° NE
CZ-2D R/B 3.3 20:52:08 31° S 20:53:54 82° WSW 20:57:50 10° NNW
Cosmos 1953 2.9 20:51:05 10° SSW 20:55:00 58° W 20:58:57 10° N
SL-16 R/B 3.4 20:53:51 10° SW 20:59:14 43° WNW 21:04:40 10° NNE
Cosmos 2034 Rocket 4.5 20:57:11 10° SSW 21:03:21 61° W 21:09:38 10° N
H-2A R/B 4.1 21:14:40 17° NNE 21:14:40 17° NNE 21:16:03 10° NNE
H-2A R/B 3.7 21:12:11 30° SSW 21:13:43 47° W 21:17:29 10° NNW
SJ-11-01 4.4 21:14:09 59° NE 21:14:09 59° NE 21:18:22 10° N
Cosmos 724 4.3 21:09:05 10° SW 21:15:01 82° WNW 21:21:09 10° NNE
USA 215 4.0 21:15:28 10° NE 21:21:43 49° NNW 21:27:57 10° WSW
ERS-1 Rocket 3.0 21:34:40 69° N 21:34:40 69° N 21:39:06 10° NNW
Cosmos 1627 Rocket 4.3 21:30:18 10° N 21:36:31 81° E 21:36:58 75° SE
Cosmos 1842 Rocket 4.4 21:39:26 47° W 21:39:29 47° WNW 21:43:42 10° N
SeaSat 1 3.2 21:36:16 10° NNE 21:41:04 52° WNW 21:45:50 10° SW
Cosmos 2369 Rocket 2.3 21:38:33 10° NNW 21:43:36 70° N 21:43:36 70° N
Cosmos 839 Rocket 4.1 21:41:13 10° NNW 21:49:01 82° ENE 21:49:20 79° E
Cosmos 1943 Rocket 3.3 21:50:23 10° NNW 21:53:53 33° NNE 21:53:53 33° NNE
Exosat Rocket 4.5 21:58:58 10° NNW 22:05:37 87° WSW 22:06:19 77° S
Cosmos 1655 Rocket 4.3 22:07:04 10° NNW 22:12:38 62° WNW 22:12:38 62° WNW
H-2A R/B 4.5 22:24:25 13° N 22:24:25 13° N 22:25:06 10° N
ATLAS 5 CENTAUR R/B 4.4 22:34:39 10° WNW 22:38:04 18° NNW 22:41:42 10° N
